Location: Central Falls
(41.8900°N, 71.3929°W)
Time: 13:05:30
(UTC+00:00)

Courier 1B Rocket - Pass Details

Date: 09 December 2023
Orbit: 920 x 1202 km, 28.2° (Epoch: 01 March)

Event Time Altitude Azimuth Distance (km) Brightness Sun altitude
Rises 19:16:51 0° 254° (WSW) 3,678 8.9 15.6°
Reaches altitude 10° 19:20:43 10° 233° (SW) 2,679 9.3 15.1°
Maximum altitude 19:24:17 15° 199° (SSW) 2,272 8.6 14.7°
Drops below altitude 10° 19:27:46 10° 165° (SSE) 2,615 7.8 14.3°
Sets 19:31:29 0° 143° (SE) 3,541 8.1 13.8°
